Location: Plzen
(49.7500°N, 13.3670°E)
Time: 02:02:14
(UTC+01:00)

ISS - Pass Details

Date: 06 October 2020
Orbit: 417 x 420 km, 51.6° (Epoch: 25 October)

Event Time Altitude Azimuth Distance (km) Brightness Sun altitude
Rises 20:21:50 0° 279° (W) 2,368 1.8 -18.2°
Reaches altitude 10° 20:25:35 10° 236° (SW) 1,498 -0.4 -18.8°
Maximum altitude 20:26:11 10° 226° (SW) 1,476 -0.6 -18.9°
Drops below altitude 10° 20:26:46 10° 215° (SW) 1,496 -0.7 -19.0°
Enters shadow 20:28:37 - 189° (S) 1,801 -0.6 -19.3°
